Location: Raven Hill Discovery Center
(45.1336°N, 85.0553°W)
Time: 02:59:32
(UTC-04:00)

Daily predictions for brighter satellites

Satellite Brightness Start Highest point End
(mag) Time Altitude Azimuth Time Altitude Azimuth Time Altitude Azimuth
Cosmos 841 Rocket 4.1 00:07:27 42° ENE 00:07:27 42° ENE 00:11:17 10° NNE
ALOS 2 4.4 00:08:53 23° NE 00:08:53 23° NE 00:11:50 10° NNE
USA 81 4.2 00:17:48 65° ENE 00:17:48 65° ENE 00:22:36 10° N
H-2A R/B 3.7 00:18:33 21° WSW 00:19:29 22° W 00:23:19 10° NW
Cosmos 2315 Rocket 3.8 00:19:17 75° SSE 00:19:50 84° E 00:26:06 10° N
Cosmos 1812 4.4 00:23:24 31° NNE 00:23:24 31° NNE 00:25:33 10° N
SeaSat 1 4.2 00:21:33 21° WSW 00:21:40 21° WSW 00:25:24 10° WNW
Cosmos 2369 Rocket 3.6 00:19:24 10° N 00:24:13 28° NE 00:25:24 26° ENE
Meteor 1-18 Rocket 4.3 00:25:09 69° E 00:25:09 69° E 00:30:53 10° NNE
Cosmos 332 Rocket 4.1 00:25:38 65° N 00:25:38 65° N 00:29:51 10° NNE
Cosmos 2297 4.0 00:21:54 10° NNW 00:27:27 57° WSW 00:27:27 57° WSW
Cosmos 1943 Rocket 4.2 00:23:40 10° N 00:27:35 19° NE 00:29:59 15° ENE
CZ-4C R/B 3.6 00:21:50 10° NW 00:28:25 39° WSW 00:29:38 36° SW
Cosmos 1937 Rocket 4.4 00:29:54 10° NW 00:34:27 38° W 00:34:27 38° W
ATLAS CENTAUR R/B 2.8 00:45:52 36° N 00:45:52 36° N 00:48:37 10° NNE
Cosmos 1975 4.4 00:41:52 10° N 00:44:13 34° N 00:44:13 34° N
Cosmos 1709 Rocket 4.4 00:40:01 10° NNW 00:46:12 53° W 00:46:57 50° WSW
Cosmos 2184 Rocket 4.0 00:41:18 10° N 00:47:41 71° E 00:47:56 70° E
Cosmos 2327 Rocket 4.4 00:42:15 10° N 00:48:19 67° E 00:48:20 67° E
SL-16 R/B 2.6 00:49:41 55° W 00:50:19 59° WNW 00:55:58 10° NNE
Cosmos 1607 3.8 00:49:31 10° NW 00:55:54 86° WSW 00:55:58 86° SW
Cosmos 1932 4.4 00:51:54 10° NW 00:58:29 81° WSW 00:58:32 81° SW
Cosmos 1763 Rocket 4.3 01:01:29 44° WNW 01:01:49 44° WNW 01:06:54 10° N
Terra 4.2 01:07:06 13° W 01:07:06 13° W 01:09:12 10° WNW
Cosmos 372 Rocket 4.3 01:01:54 10° NNW 01:06:18 63° NNW 01:06:18 63° NNW
CZ-2C R/B 2.9 01:02:33 10° NNE 01:07:21 63° NE 01:07:21 63° NE
Meteor 2-13 Rocket 4.3 01:04:07 10° N 01:10:03 84° NW 01:10:03 84° NW
Cosmos 1125 Rocket 4.0 01:05:19 10° NNW 01:09:39 55° NW 01:09:39 55° NW
Cosmos 2237 Rocket 4.3 01:06:49 10° W 01:11:09 22° NW 01:15:29 10° N
Cosmos 1610 Rocket 4.5 01:05:07 10° N 01:11:32 76° E 01:11:37 76° E
ATLAS 2AS CENTAUR R/B 3.0 01:11:16 52° SW 01:13:29 80° NW 01:21:42 10° NE
Cosmos 2074 Rocket 4.0 01:09:37 10° NNW 01:15:45 70° W 01:15:45 70° W
Cosmos 2341 Rocket 4.5 01:11:33 10° N 01:17:35 49° ENE 01:17:52 48° E
NOSS 3-2 (A) 4.3 01:16:11 10° NNW 01:23:28 59° NE 01:26:33 38° ESE
Cosmos 2154 Rocket 3.9 01:21:03 10° N 01:27:22 77° E 01:27:22 77° E
Cosmos 540 Rocket 4.0 01:29:44 56° NNW 01:29:44 56° NNW 01:34:03 10° NNE
CZ-2C R/B 3.8 01:36:33 42° NW 01:36:33 42° NW 01:40:09 10° NNW
ATLAS 3B R/B 2.9 01:30:34 10° NW 01:36:24 52° W 01:36:24 52° W
Cosmos 1238 Rocket 3.8 01:39:43 71° N 01:39:43 71° N 01:45:11 10° N
Cosmos 44 Rocket 4.2 01:36:07 10° NNW 01:39:39 44° N 01:39:39 44° N
Cosmos 1943 3.5 01:43:36 59° ENE 01:43:36 59° ENE 01:48:18 10° NNE
Meteor 1-15 Rocket 4.4 01:37:12 10° N 01:42:40 67° NE 01:42:40 67° NE
ALOS 2 4.4 01:46:16 26° NW 01:46:16 26° NW 01:48:34 10° NNW
Meteor 2-4 Rocket 3.8 01:46:06 67° NNE 01:46:06 67° NNE 01:50:49 10° N
Cosmos 962 Rocket 4.4 01:48:46 10° N 01:55:11 89° W 01:55:11 89° W
COSMOS 2455 3.8 01:49:57 10° NNW 01:55:40 42° NE 01:57:37 33° E
CZ-4B R/B 4.3 02:01:14 16° NNW 02:01:14 16° NNW 02:01:58 10° NNW
Cosmos 2263 4.4 01:53:57 10° NNW 01:59:03 69° NW 01:59:03 69° NW
Cosmos 2228 4.5 01:56:37 10° N 01:59:42 34° NE 01:59:42 34° NE
USA 238 DEB 4.1 01:57:16 10° NW 02:03:21 50° W 02:03:21 50° W
USA 238 4.1 01:57:21 10° NW 02:03:28 50° W 02:03:28 50° W
Cosmos 2369 Rocket 2.9 02:03:06 10° NW 02:07:11 42° WNW 02:07:11 42° WNW
Cosmos 724 4.5 02:04:34 10° NNW 02:10:41 69° NE 02:11:11 65° E
Cosmos 2366 rocket 4.3 02:04:51 10° N 02:11:04 57° ENE 02:11:43 55° ESE
Cosmos 1943 Rocket 2.3 02:06:27 10° NNW 02:11:29 71° NNW 02:11:29 71° NNW
Cosmos 2218 Rocket 4.0 02:06:46 10° N 02:12:58 66° E 02:13:20 65° E
Cosmos 2181 Rocket 3.9 02:14:19 84° SW 02:14:31 87° W 02:21:01 10° N
USA 215 4.0 02:10:52 10° ENE 02:16:03 36° ESE 02:16:03 36° ESE
H-2A R/B 4.1 02:13:47 10° NNE 02:15:48 30° NNE 02:15:48 30° NNE
SL-8 Rocket 3.8 02:14:41 10° N 02:20:53 89° E 02:20:58 88° SSE
Cosmos 1025 Rocket 4.5 02:27:24 32° NNW 02:27:24 32° NNW 02:30:10 10° N
CENTAUR R/B 3.8 02:25:10 10° NNW 02:32:39 51° NE 02:40:44 10° ESE
NOSS 3-2 (C) 3.9 02:28:49 10° NW 02:36:18 77° SW 02:37:54 60° S
Cosmos 1809 Rocket 4.3 02:31:26 10° N 02:37:36 86° E 02:37:55 81° SE
Cosmos 1680 Rocket 3.9 02:41:13 56° E 02:41:13 56° E 02:45:57 10° NNE
Lacrosse 5 rocket 3.3 02:47:41 25° E 02:47:41 25° E 02:50:10 10° ENE
Cosmos 1656 Rocket 3.5 02:40:42 10° NNW 02:46:05 79° NE 02:46:05 79° NE
Aureole 1 Rocket 3.9 02:48:28 49° NE 02:48:28 49° NE 02:51:29 10° NNE
USA 267 4.2 02:44:36 10° E 02:50:47 47° NNE 02:56:59 10° NW
COSMOS 2406 3.6 02:51:03 50° ESE 02:51:14 50° ESE 02:56:46 10° NE
Cosmos 1812 Rocket 4.3 02:47:22 10° N 02:51:15 49° NE 02:51:15 49° NE
Cosmos 1066 Rocket 4.0 02:52:05 78° E 02:52:05 78° E 02:57:22 10° NNE
Helios 1A Rocket 3.9 02:48:08 10° NNE 02:51:05 45° NNE 02:51:05 45° NNE
SL-08 R/B 4.4 02:53:04 36° E 02:53:57 40° ENE 02:58:27 10° N
Nadezhda 3 Rocket 4.3 03:01:28 50° SE 03:02:50 61° E 03:09:06 10° NNE
PSLV R/B 4.0 02:58:43 10° N 03:02:41 61° NNW 03:02:41 61° NNW
NOSS 3-4 (A) 3.5 03:03:05 61° WSW 03:04:08 75° NW 03:10:43 10° NE
NOSS 3-4 (C) 3.5 03:03:12 62° WSW 03:04:15 75° NW 03:10:49 10° NE
Meteor 1-22 Rocket 3.9 03:01:39 10° N 03:07:10 89° E 03:07:24 83° SSE
Resurs 1-4 Rocket 3.9 03:04:29 10° NE 03:08:31 22° E 03:10:30 18° ESE
Cosmos 1371 Rocket 4.1 03:06:33 10° NNW 03:11:58 74° ENE 03:12:51 60° SE
Cosmos 1544 4.4 03:10:35 10° N 03:13:27 38° NE 03:13:27 38° NE
NOSS 3-2 (A) 4.5 03:07:22 10° NW 03:13:54 40° WSW 03:13:54 40° WSW
Cosmos 923 Rocket 4.2 03:15:43 56° WNW 03:15:57 57° WNW 03:21:14 10° NNE
Meteor 2-14 Rocket 4.3 03:10:34 10° NNW 03:16:39 67° W 03:17:15 63° SW
Cosmos 192 4.3 03:17:05 75° ESE 03:17:05 75° ESE 03:21:59 10° NNE
Cosmos 1626 Rocket 4.0 03:19:10 57° NNW 03:19:10 57° NNW 03:22:52 10° N
RESURS DK-1 2.9 03:20:16 57° N 03:20:16 57° N 03:23:41 10° NNE
NOSS 2-2 (C) 4.5 03:21:59 37° ESE 03:21:59 37° ESE 03:25:47 10° NE
Meteor 2-16 Rocket 4.3 03:15:53 10° NNW 03:21:57 69° W 03:22:43 62° SW
Meteor 1-4 Rocket 4.0 03:21:18 10° NNW 03:23:39 35° NNW 03:23:39 35° NNW
NPP 3.7 03:22:32 10° NNE 03:27:57 72° ESE 03:28:55 58° SSE
Cosmos 1825 Rocket 4.0 03:28:51 50° ESE 03:29:09 51° E 03:33:26 10° NNE
CZ-2D R/B 3.3 03:28:06 10° NNE 03:32:54 34° E 03:34:59 25° SE
AQUA 3.8 03:34:05 10° NNE 03:38:52 73° ESE 03:39:31 63° SSE
Cosmos 1602 Rocket 4.4 03:41:41 39° WNW 03:41:41 39° WNW 03:45:31 10° N
COSMOS 2455 3.5 03:36:03 10° NW 03:40:43 36° W 03:40:43 36° W
Cosmos 1821 Rocket 3.8 03:37:22 10° N 03:43:30 88° W 03:45:48 42° S
Cosmos 1818 3.7 03:43:32 52° S 03:44:36 63° ESE 03:50:01 10° NE
Cosmos 1953 2.4 03:41:13 10° N 03:45:13 69° E 03:45:27 67° ESE
Cosmos 2278 4.4 03:45:13 10° NNW 03:50:51 54° ENE 03:56:25 10° SE
Cosmos 2239 Rocket 4.3 03:45:19 10° NNW 03:51:28 76° W 03:53:39 42° S
Cosmos 1943 Rocket 4.3 03:52:29 10° WNW 03:52:59 11° WNW 03:52:59 11° WNW
Cosmos 1934 Rocket 3.9 03:51:44 10° N 03:58:04 87° W 04:01:26 30° S
Cosmos 1271 Rocket 2.9 03:56:07 10° NNW 03:59:17 55° NW 03:59:17 55° NW
Cosmos 2369 4.2 03:54:16 10° NNW 03:59:58 62° ENE 04:05:38 10° SE
USA 215 3.3 03:53:38 10° NE 04:00:09 73° NNW 04:03:24 32° WSW
Meteor 1-21 4.4 03:59:06 46° WSW 04:00:24 57° WNW 04:05:56 10° N
Cosmos 1535 Rocket 4.4 03:56:26 10° NNW 04:02:35 67° W 04:04:56 38° SSW
Cosmos 1624 Rocket 4.2 03:58:32 10° NNW 04:03:33 49° WSW 04:04:01 47° WSW
Cosmos 1605 Rocket 4.1 03:58:11 10° N 04:04:25 75° E 04:09:04 18° SSE
IRS-1C 4.1 03:59:30 10° NNE 04:04:52 78° WNW 04:06:34 44° SSW
Cosmos 1758 3.3 04:00:53 10° NNW 04:04:54 62° W 04:04:54 62° W
Cosmos-2242 3.6 04:00:47 10° N 04:05:09 57° E 04:07:34 24° SSE
Cosmos 1805 3.9 04:03:56 10° NNW 04:07:07 41° WNW 04:07:07 41° WNW
Cosmos 921 Rocket 3.2 04:05:10 10° NNW 04:09:33 52° WSW 04:09:45 52° WSW
Cosmos 1833 Rocket 4.1 04:05:59 16° SSE 04:09:33 31° ESE 04:14:25 10° NE
Abrixas 3.5 04:11:29 41° NNE 04:11:29 41° NNE 04:14:03 10° E
Cosmos 1980 Rocket 4.4 04:06:47 10° N 04:11:36 27° NE 04:16:22 10° ESE
ADEOS Rocket 3.2 04:05:47 10° NNE 04:11:58 77° ESE 04:16:02 26° S
SL-16 R/B 2.4 04:11:06 25° S 04:14:50 72° WSW 04:21:01 10° NNW
NOSS 2-2 (E) 3.8 04:15:29 46° WSW 04:16:31 61° NW 04:21:27 10° NNE
Cosmos 2082 Rocket 3.3 04:13:23 19° SSE 04:16:59 39° ESE 04:22:13 10° NE
Cosmos 2056 Rocket 3.9 04:12:44 10° NW 04:17:41 40° WSW 04:18:17 38° WSW
Cosmos 389 Rocket 2.4 04:16:58 10° N 04:20:37 88° E 04:21:26 52° SSE
Spot 4 Rocket 4.0 04:15:45 10° NNE 04:20:56 79° WNW 04:23:06 36° SSW
Cosmos 2098 Rocket 2.1 04:18:51 10° N 04:21:46 73° E 04:21:50 72° E
CENTAUR R/B 3.2 04:15:58 10° NW 04:23:33 51° WSW 04:31:34 10° S
Cosmos 1758 Rocket 3.6 04:23:59 45° SW 04:24:57 57° W 04:29:15 10° N
Lacrosse 5 rocket 2.1 04:23:22 33° W 04:25:11 52° NW 04:29:45 10° NE
USA 32 4.1 04:25:07 36° SW 04:27:04 59° W 04:32:15 10° N
CZ-2D R/B 4.2 04:25:54 10° NNE 04:29:48 46° E 04:32:15 20° SSE
EXPRESS MD2 3.6 04:23:01 10° WNW 04:30:00 82° SSW 04:33:24 10° ESE
SL-27 R/B 4.2 04:32:04 20° WNW 04:32:21 20° WNW 04:35:09 10° N
Cosmos 1378 3.8 04:31:08 23° SSE 04:33:10 51° E 04:36:49 10° NNE
USA 267 3.1 04:27:03 10° SE 04:33:35 74° SW 04:40:09 10° NW
COSMOS 2406 4.4 04:33:07 21° W 04:35:47 30° NW 04:40:49 10° N
Meteor 2-5 Rocket 4.0 04:32:45 17° S 04:37:14 70° E 04:43:05 10° NNE
Cosmos 2100 Rocket 4.5 04:33:13 10° N 04:39:21 60° ENE 04:45:24 10° SSE
Meteor 2-15 4.4 04:37:43 18° S 04:42:30 86° E 04:48:39 10° N
Meteor 1-16 Rocket 4.1 04:38:25 10° N 04:43:50 83° E 04:49:07 10° SSE
Cosmos 1707 2.6 04:42:22 33° SSW 04:43:59 76° W 04:47:53 10° N
IRS-1D 3.8 04:39:00 10° N 04:44:07 57° WNW 04:46:59 26° SW
MOS 1 Rocket 3.8 04:41:54 10° NNE 04:46:13 54° E 04:50:20 12° S
MOZ.5/SAFIR/RUBIN 5/SL-8 3.7 04:41:52 10° SSE 04:46:32 84° WSW 04:51:16 10° NNW
ARIANE 5 R/B 2.7 04:41:57 10° N 04:47:05 57° WNW 04:49:59 25° SW
Cosmos 1953 Rocket 4.5 04:45:54 28° WSW 04:47:13 33° WNW 04:51:19 10° N
Resurs 1-4 Rocket 2.4 04:43:32 10° N 04:48:39 53° WNW 04:51:35 25° SW
DNEPR-1 R/B 4.2 04:48:30 10° NW 04:52:17 32° WSW 04:54:09 22° SSW
Cosmos 1452 Rocket 3.7 04:47:20 10° NNW 04:52:22 47° WSW 04:57:09 11° S
Meteor 2-15 Rocket 4.5 04:47:22 14° S 04:52:48 88° E 04:58:58 10° N
ADEOS 4.0 04:49:57 10° N 04:54:58 48° WNW 04:57:59 23° SW
Cosmos 1470 3.6 04:55:50 10° NNW 04:59:17 30° W 05:00:21 26° WSW
Cosmos 1420 Rocket 4.1 04:59:58 10° NNW 05:05:11 56° WSW 05:10:20 10° S
Cosmos 1048 Rocket 3.9 05:08:23 15° SSW 05:12:41 85° WNW 05:17:50 10° NNE
CZ-2D R/B 2.9 05:08:12 10° N 05:12:56 34° WNW 05:16:19 17° WSW
COSMOS 2487 3.6 05:13:01 20° WSW 05:14:41 30° WNW 05:17:54 10° N
Cosmos 1727 Rocket 4.4 05:11:31 16° SW 05:16:14 46° WNW 05:22:09 10° N
Cosmos 2061 Rocket 4.0 05:10:20 10° N 05:16:36 85° W 05:22:46 10° S
Gbstr 26 Del rocket 4.4 05:08:38 10° WNW 05:16:38 88° NNE 05:23:27 10° ESE
UNKNOWN OBJECT B 3.4 05:14:01 10° N 05:17:48 41° WNW 05:20:35 17° SW
Cosmos 2016 Rocket 4.2 05:12:23 10° N 05:18:41 80° E 05:25:01 10° S
Cosmos 1697 Rocket 2.7 05:14:50 10° NNW 05:20:23 64° WSW 05:25:55 10° S
MOS 1-B 4.4 05:15:15 10° NNE 05:21:06 87° WNW 05:26:54 10° SSW
Orbus 7S? 3.3 05:18:22 10° WNW 05:21:29 32° SW 05:23:52 10° SSE
Cosmos 1110 Rocket 4.5 05:17:12 10° NNW 05:22:31 66° ENE 05:27:46 10° SSE
Okean 3 Rocket 4.1 05:19:38 10° S 05:23:59 63° E 05:28:24 10° NNE
Meteor 1-24 Rocket 3.7 05:18:37 10° SSW 05:24:09 80° WNW 05:29:56 10° N
USA 161 2.7 05:28:53 17° SW 05:30:10 22° W 05:32:26 10° NW
GENESIS II 4.3 05:26:54 10° NW 05:30:48 55° WSW 05:34:36 10° SSE
Cosmos 1269 Rocket 4.2 05:30:41 11° SW 05:35:38 56° WNW 05:40:51 10° NNE
Cosmos 1459 Rocket 4.1 05:30:05 10° NNW 05:36:06 56° W 05:42:11 10° SSW
Okean O Rocket 1.7 05:34:53 10° NNE 05:39:21 80° ESE 05:43:45 10° S
Cosmos 1656 4.3 05:35:14 10° NW 05:39:56 31° WSW 05:44:38 10° SSW
IRS-1C Rocket 4.5 05:35:34 10° NNE 05:40:50 69° ESE 05:46:05 10° S
Meteor 2-17 Rocket 4.5 05:35:42 10° NNW 05:41:38 59° W 05:47:32 10° S
USA 215 4.4 05:36:45 10° NE 05:42:36 36° NNW 05:48:27 10° WNW
Cosmos 1802 Rocket 4.2 05:38:34 10° NNW 05:44:51 57° W 05:51:03 10° SSW
GEOS 3 Rocket 4.3 05:40:30 10° NNE 05:45:29 44° NW 05:50:31 10° WSW
Abrixas 2.2 05:43:43 10° WNW 05:46:32 66° SSW 05:49:18 10° ESE
Cosmos 1674 3.4 05:43:00 10° S 05:46:44 57° E 05:50:31 10° NNE
ADEOS II 2.2 05:42:01 10° NNE 05:47:19 89° E 05:52:35 10° SSW
PSLV R/B 4.0 05:43:21 10° N 05:47:27 64° WNW 05:51:33 10° SSW
Cosmos 1331 Rocket 4.0 05:42:12 10° NNW 05:47:28 87° WSW 05:52:39 10° SSE
Cosmos 2322 Rocket 3.3 05:42:37 10° NNW 05:48:11 51° ENE 05:53:42 10° SE
Cosmos 158 Rocket 4.4 05:46:04 10° SW 05:50:55 46° WNW 05:55:56 10° N
Cosmos 1725 Rocket 4.0 05:46:36 10° N 05:52:54 82° W 05:59:12 10° S
Cosmos 1833 Rocket 3.3 05:47:58 10° SW 05:53:18 43° WNW 05:58:40 10° NNE
Cosmos 1408 Rocket 4.2 05:49:52 10° S 05:54:16 61° E 05:58:41 10° NNE
EO 1 Del DPAF 3.2 05:51:58 10° S 05:55:48 80° WSW 05:59:41 10° NNW
Cosmos 1980 Rocket 2.3 05:50:24 10° NNW 05:55:58 56° WSW 06:01:27 10° S
Cosmos 2251 Rocket 3.8 05:52:45 10° SSW 05:58:00 73° ESE 06:03:21 10° NNE
PSLV R/B 3.6 05:54:29 10° N 05:58:52 81° WNW 06:03:09 10° SSW
SL-16 R/B 4.3 05:57:53 10° W 05:59:31 11° W 06:01:08 10° WNW
Cosmos 2228 Rocket 4.5 05:56:33 10° N 06:00:46 44° ENE 06:04:59 10° SSE
Cosmos 2082 Rocket 3.0 05:55:51 10° WSW 06:01:05 36° NW 06:06:20 10° NNE
